Terminal Aerodrome Forecast
Issued by NWS Buffalo, NY

Home | Current Version | Previous Version | Text Only | Print | Product List | Glossary On
Versions: 1 2 3 4 5 6 7 8 9 10 11 12 13 14 15 16 17 18 19 20 21 22 23 24 25 26 27 28 29 30
000
FTUS41 KBUF 051140
TAFROC
TAF
KROC 051140Z 0512/0612 VRB03KT P6SM BKN060
     FM051600 17006KT P6SM FEW040 SCT050
     FM052000 09006KT P6SM FEW040 SCT060
     FM060000 VRB04KT P6SM SCT060
     FM060600 20004KT P6SM SCT070=

USA.gov is the U.S. government's official web portal to all federal, state and local government web resources and services.